Weather observations for the past three days for
North Myrtle Beach Grand Strand Airport
Imperial (Metric)
Date Time (edt) Wind (mph) Vis. (mi.) Weather Sky Cond. Temperature (ºF) Relative Humidity Wind Chill (°F) Heat Index (°F) Pressure Precipitation (in)
Air Dwpt 6 hour altimeter (in) sea level (mb) 1 hr 3 hr 6 hr
Max. Min.
06 11:53 SE 8 10.00 Fair CLR 82.9 72 70% 88 29.89 1012.3
06 10:53 NE 7 10.00 Fair CLR 82 71.1 69% 86 29.9 1012.4
06 09:53 NE 6 10.00 Fair CLR 79 72 79% 82 29.89 1012.1
06 08:53 NE 6 10.00 Fair CLR 75.9 72 88% 76 29.88 1011.8
06 07:53 N 5 10.00 Fair CLR 73 72 73 72 96% 29.86 1011.3
06 06:53 N 5 0.75 Fog/Mist VV002 72 72 100% 29.84 1010.6
06 05:53 N 5 10.00 Fair CLR 72 72 100% 29.82 1009.7
06 04:53 Calm 10.00 Fair CLR 73 73 100% 29.81 1009.6
06 03:53 Calm 10.00 Fair CLR 73 73 100% 29.81 1009.6
06 02:53 Calm 10.00 Fair CLR 73 73 100% 29.83 1010.3
06 01:53 W 5 10.00 Fair CLR 73 72 75.9 73 96% 29.84 1010.4 0.12
06 00:53 NW 5 8.00 Fair CLR 75 73.9 96% 73 29.83 1010.2
05 23:53 Calm 10.00 Thunderstorm in Vicinity CLR 75.9 73.9 94% 75 29.86 1011.3
05 22:53 NE 10 G 22 10.00 Thunderstorm Light Rain SCT014 BKN023 OVC055 73.9 72 94% 29.89 1012.3 0.12
05 21:53 NE 3 10.00 Thunderstorm OVC048 75 73.9 96% 73 29.85 1011.0 0.12
05 20:53 Calm 10.00 Mostly Cloudy SCT070 BKN085 73.9 71.1 91% 29.84 1010.4
05 19:53 W 7 G 21 6.00 Thunderstorm Rain FEW050 SCT070 BKN095 73.9 69.1 91 72 85% 29.84 1010.4
05 18:53 NE 22 G 40 10.00 Thunderstorm Light Rain and Breezy FEW018 SCT055 BKN090 78.1 69.1 74% 80 29.89 1012.3
05 17:53 SW 17 10.00 Fair CLR 84.9 80.1 85% 99 29.79 1008.8
05 16:53 SW 13 10.00 Fair CLR 88 80.1 77% 105 29.8 1009.2
05 13:53 S 13 10.00 Fair CLR 90 78.1 91.9 78.1 68% 105 29.86 1011.2
05 12:53 S 12 10.00 Fair CLR 91 78.1 66% 106 29.88 1011.8
05 11:53 Calm 10.00 Fair CLR 89.1 77 68% 102 29.9 1012.7
05 10:53 Vrbl 6 10.00 Fair CLR 87.1 77 72% 99 29.92 1013.1
05 09:53 SW 8 10.00 Fair CLR 84 75.9 77% 93 29.93 1013.5
05 08:53 W 8 10.00 A Few Clouds FEW008 81 75.9 85% 87 29.93 1013.5
05 07:53 W 7 10.00 Fair CLR 78.1 75.9 79 77 93% 81 29.92 1013.4
05 06:53 W 5 10.00 Fair CLR 77 75.9 96% 78 29.91 1013.0
05 05:53 W 6 10.00 Fair CLR 77 75.9 96% 78 29.9 1012.6
05 04:53 W 5 10.00 A Few Clouds FEW050 78.1 75.9 93% 81 29.91 1013.0
05 03:53 W 3 10.00 Fair CLR 78.1 75.9 93% 81 29.91 1013.1
05 02:53 SW 5 10.00 Fair CLR 78.1 75.9 93% 81 29.91 1012.9
05 01:53 Calm 10.00 Fair CLR 79 75.9 84 79 90% 83 29.93 1013.7
05 00:53 Calm 10.00 Fair CLR 80.1 77 90% 86 29.95 1014.4
04 23:53 SW 6 10.00 Fair CLR 81 77 88% 88 29.96 1014.6
04 22:53 W 3 10.00 Fair CLR 81 77 88% 88 29.97 1014.9
04 21:53 SW 9 10.00 Fair CLR 82 77 85% 90 29.97 1014.9
04 20:53 SW 12 10.00 Fair CLR 82.9 75.9 79% 91 29.95 1014.4
04 19:53 SW 12 10.00 Partly Cloudy SCT015 84 78.1 88 82.9 82% 95 29.95 1014.3
04 18:53 S 14 10.00 Fair CLR 84.9 75.9 75% 94 29.95 1014.2
04 17:53 S 12 10.00 Fair CLR 86 77 75% 97 29.94 1014.0
04 16:53 S 13 10.00 Fair CLR 87.1 77 72% 99 29.95 1014.4
04 15:53 S 10 10.00 Fair CLR 87.1 77 72% 99 29.98 1015.2
04 14:53 S 13 10.00 Fair CLR 87.1 77 72% 99 29.99 1015.6
04 13:53 S 9 G 20 10.00 Fair CLR 87.1 77 88 77 72% 99 30.01 1016.4
04 12:53 S 13 10.00 Fair CLR 87.1 75.9 70% 98 30.03 1016.9
04 11:53 S 12 10.00 Fair CLR 88 77 70% 100 30.04 1017.3
04 10:53 S 12 10.00 A Few Clouds FEW022 86 77 75% 97 30.04 1017.4
04 09:53 SW 8 10.00 A Few Clouds FEW019 84.9 77 77% 95 30.03 1017.0
04 08:53 Calm 10.00 Fair CLR 82.9 78.1 85% 93 30.03 1017.1
04 07:53 Calm 10.00 A Few Clouds FEW017 77 77 82 75 100% 78 30.03 1017.0
04 06:53 Calm 9.00 Fair CLR 75.9 75.9 100% 75 30.02 1016.7
04 05:53 Calm 10.00 Fair CLR 75.9 75.9 100% 75 30 1016.1
04 04:53 Calm 10.00 Fair CLR 77 75.9 96% 78 29.99 1015.7
04 03:53 Calm 10.00 Partly Cloudy FEW016 SCT022 77 77 100% 78 29.99 1015.6
04 02:53 Calm 10.00 Partly Cloudy FEW015 SCT021 79 78.1 97% 83 30 1015.9
04 01:53 S 5 10.00 Partly Cloudy FEW016 SCT023 82 78.1 82.9 82 88% 91 30.02 1016.7
04 00:53 S 6 10.00 Partly Cloudy SCT017 82 77 85% 90 30.04 1017.4
03 23:53 S 6 10.00 A Few Clouds FEW016 82 77 85% 90 30.04 1017.3
03 22:53 S 6 10.00 Partly Cloudy SCT018 82.9 77 82% 92 30.05 1017.6
03 21:53 S 7 10.00 Partly Cloudy SCT018 82.9 77 82% 92 30.05 1017.5
03 20:53 S 6 10.00 Mostly Cloudy BKN018 82.9 77 82% 92 30.02 1016.6
03 19:53 S 7 10.00 A Few Clouds FEW016 82.9 78.1 87.1 82.9 85% 93 30 1016.0
03 18:53 S 6 10.00 A Few Clouds FEW017 84 78.1 82% 95 30.02 1016.5
03 17:53 SE 8 10.00 A Few Clouds FEW017 84.9 78.1 80% 97 30.02 1016.4
03 16:53 S 10 10.00 Fair CLR 86 77 75% 97 30.02 1016.8
03 15:53 SE 12 10.00 Fair CLR 87.1 75.9 70% 98 30.03 1017.1
03 14:53 S 10 10.00 Fair CLR 87.1 77 72% 99 30.04 1017.5
03 13:53 SE 9 10.00 Fair CLR 87.1 78.1 87.1 77 75% 100 30.06 1017.8
03 12:53 SE 9 10.00 Fair CLR 86 78.1 77% 98 30.06 1018.1
Date Time (edt) Wind (mph) Vis. (mi.) Weather Sky Cond. Air Dwpt Max. Min. Relative Humidity Wind Chill (°F) Heat Index (°F) altimeter (in) sea level (mb) 1 hr 3 hr 6 hr
6 hour
Temperature (ºF) Pressure Precipitation (in)